Weather History for Puerto Plata, Dominican Republic

Change the Weather History Date:

Monday, March 24, 2014

  Actual Average Record
Temperature  
Mean Temperature 76 °F -  
Max Temperature 86 °F 82 °F 90 °F (2013)
Min Temperature 67 °F 70 °F 66 °F (2011)
Cooling Degree Days 12    
Growing Degree Days 26 (Base 50)    
Moisture  
Dew Point 73 °F    
Average Humidity 81    
Maximum Humidity 100    
Minimum Humidity 60    
Precipitation  
Precipitation 0.00 in - - ()
Sea Level Pressure  
Sea Level Pressure 29.97 in    
Wind  
Wind Speed 3 mph ()    
Max Wind Speed 12 mph    
Max Gust Speed -    
Visibility 6.2 miles    
Events      
Averages and records for this station are not official NWS values.
T = Trace of Precipitation, MM = Missing Value Source: Averaged Metar Reports

Daily Weather History Graph

Daily Weather History Graph

Search for Another Location

Airport:

Trip Planner

Search our weather history database for the weather conditions in past years. The results will help you decide how hot, cold, wet, or windy it might be!

Date:

Astronomy

Mar. 24, 2014 Rise Set
Actual Time 6:42 AM AST 6:54 PM AST
Civil Twilight 6:20 AM AST 7:16 PM AST
Nautical Twilight 5:55 AM AST 7:41 PM AST
Astronomical Twilight 5:29 AM AST 8:07 PM AST
Moon 1:27 AM AST (3/24) 12:58 PM AST (3/24)
Length of Visible Light 12h 55m
Length of Day
12h 11m
Last Quarter, 43% of the Moon is Illuminated
Mar 24
Last Quarter
Mar 30
New
Apr 7
First Quarter
Apr 15
Full
Apr 22
Last Quarter

Hourly Weather History & Observations

Time (AST) Temp. Heat Index Dew Point Humidity Pressure Visibility Wind Dir Wind Speed Gust Speed Precip Events Conditions
2:00 AM 72 °F - 70 °F 93% 30.00 in 6 mi Calm Calm - -   Haze
2:00 AM 71.6 °F - 69.8 °F 94% 29.98 in 6.2 mi Calm Calm - N/A   Partly Cloudy
5:00 AM 71.6 °F - 71.6 °F 100% 29.98 in 6.2 mi Calm Calm - N/A   Partly Cloudy
8:00 AM 72 °F - 71 °F 97% 30.00 in 6 mi Calm Calm - -   Haze
8:00 AM 71.6 °F - 71.6 °F 100% 29.98 in 6.2 mi Calm Calm - N/A   Partly Cloudy
9:00 AM 78.8 °F - 73.4 °F 83% 30.01 in 6.2 mi South 8.1 mph - N/A   Partly Cloudy
10:00 AM 84.2 °F 89.6 °F 71.6 °F 66% 29.98 in 6.2 mi Calm Calm - N/A   Partly Cloudy
11:00 AM 84.2 °F 89.6 °F 71.6 °F 66% 30.01 in 6.2 mi Calm Calm - N/A   Partly Cloudy
12:00 PM 84.2 °F 92.3 °F 75.2 °F 74% 29.98 in 6.2 mi North 11.5 mph - N/A   Partly Cloudy
1:00 PM 86.0 °F 95.1 °F 75.2 °F 70% 29.98 in 6.2 mi North 11.5 mph - N/A   Partly Cloudy
2:00 PM 84 °F - 72 °F 60% 29.97 in 6 mi North 8.9 mph - -   Haze
2:00 PM 84.2 °F 89.6 °F 71.6 °F 66% 29.95 in 6.2 mi North 9.2 mph - N/A   Partly Cloudy
3:00 PM 84.2 °F 92.3 °F 75.2 °F 74% 29.95 in 6.2 mi North 11.5 mph - N/A   Scattered Clouds
4:00 PM 84.2 °F 92.3 °F 75.2 °F 74% 29.92 in 6.2 mi North 9.2 mph - N/A   Scattered Clouds
5:00 PM 82.4 °F 88.2 °F 73.4 °F 74% 29.92 in 6.2 mi North 6.9 mph - N/A   Scattered Clouds
6:00 PM 80.6 °F 85.4 °F 73.4 °F 79% 29.92 in 6.2 mi ENE 11.5 mph - N/A   Scattered Clouds
7:00 PM 80.6 °F 85.4 °F 73.4 °F 79% 29.95 in 6.2 mi Calm Calm - N/A   Mostly Cloudy
8:00 PM 77.0 °F - 73.4 °F 89% 29.98 in 6.2 mi Calm Calm - N/A   Scattered Clouds
11:00 PM 73.4 °F - 71.6 °F 94% 30.01 in 6.2 mi Calm Calm - N/A   Partly Cloudy